Location: Vinland
(47.7731°N, 122.6974°W)
Time: 09:08:56
(UTC+00:00)

Vanguard 1 - All Passes

Search period start: 29 March 2023 00:00
Search period end: 08 April 2023 00:00
Orbit: 648 x 3832 km, 34.3° (Epoch: 28 March)

Date Brightness Start Highest point End Pass type
(mag) Time Alt. Az. Time Alt. Az. Time Alt. Az.
29 Mar - 01:03:10 10° WSW 01:25:05 53° SSW 01:40:20 10° ESE daylight
29 Mar - 03:30:25 10° W 03:47:14 33° SW 03:58:21 10° SSE visible
29 Mar - 18:25:19 10° SSE 18:35:11 16° SE 18:46:01 10° E daylight
29 Mar - 20:38:16 10° SSW 20:56:47 39° SSE 21:16:08 10° E daylight
29 Mar - 22:59:09 10° WSW 23:21:10 54° S 23:39:46 10° ESE daylight
30 Mar - 01:24:04 10° W 01:45:35 50° SSW 02:00:30 10° SE daylight
30 Mar - 03:51:57 10° W 04:07:05 27° SW 04:17:33 10° S visible
30 Mar - 18:42:06 10° S 18:54:53 21° SE 19:09:24 10° E daylight
30 Mar - 20:57:49 10° SW 21:17:07 44° SSE 21:37:09 10° E daylight
30 Mar - 23:19:39 10° WSW 23:41:51 56° S 00:00:18 10° ESE daylight
31 Mar - 01:45:02 10° W 02:05:58 46° SSW 02:20:30 10° SE daylight
31 Mar - 04:13:53 10° W 04:26:48 22° SW 04:36:16 10° S visible
31 Mar - 19:00:10 10° S 19:14:40 27° SE 19:31:38 10° E daylight
31 Mar - 21:17:41 10° SW 21:37:34 49° SSE 21:58:02 10° E daylight
31 Mar - 23:40:15 10° WSW 00:02:31 56° S 00:20:44 10° ESE daylight
01 Apr - 02:06:07 10° W 02:26:13 41° SSW 02:40:19 10° SSE daylight
01 Apr - 04:36:37 10° W 04:46:23 16° SW 04:54:07 10° SSW visible
01 Apr - 19:18:55 10° SSW 19:34:36 33° SE 19:53:17 10° E daylight
01 Apr - 21:37:46 10° SW 21:58:06 52° SSE 22:18:49 10° E daylight
02 Apr - 00:00:58 10° WSW 00:23:10 54° S 00:41:04 10° ESE daylight
02 Apr - 02:27:20 10° W 02:46:19 36° SW 02:59:52 10° SSE daylight
02 Apr - 05:01:42 10° WSW 05:05:51 11° WSW 05:09:36 10° SW visible
02 Apr - 17:26:15 10° SSE 17:33:59 14° ESE 17:42:47 10° E daylight
02 Apr - 19:38:09 10° SSW 19:54:41 38° SE 20:14:37 10° E daylight
02 Apr - 21:58:02 10° WSW 22:18:44 55° S 22:39:30 10° ESE daylight
03 Apr - 00:21:47 10° W 00:43:44 52° SSW 01:01:17 10° SE daylight
03 Apr - 02:48:47 10° W 03:06:16 31° SW 03:19:06 10° SSE visible
03 Apr - 17:42:49 10° SSE 17:53:32 19° SE 18:06:36 10° E daylight
03 Apr - 19:57:42 10° SW 20:14:54 43° SSE 20:35:44 10° E daylight
03 Apr - 22:18:27 10° WSW 22:39:25 56° S 23:00:07 10° ESE daylight
04 Apr - 00:42:40 10° W 01:04:12 48° SSW 01:21:19 10° SE daylight
04 Apr - 03:10:35 10° W 03:26:02 25° SW 03:37:53 10° S visible
04 Apr - 18:00:51 10° S 18:13:12 25° SE 18:29:01 10° E daylight
04 Apr - 20:17:31 10° SW 20:35:15 48° SSE 20:56:42 10° E daylight
04 Apr - 22:38:59 10° WSW 23:00:07 56° S 23:20:38 10° ESE daylight
05 Apr - 01:03:39 10° W 01:24:33 43° SSW 01:41:09 10° SE daylight
05 Apr - 03:33:01 10° W 03:45:42 19° SW 03:55:56 10° SSW visible
05 Apr - 18:19:36 10° SSW 18:33:01 31° SE 18:50:49 10° E daylight
05 Apr - 20:37:34 10° SW 20:55:44 52° SSE 21:17:34 10° E daylight
05 Apr - 22:59:37 10° WSW 23:20:48 55° S 23:41:02 10° ESE daylight
06 Apr - 01:24:47 10° W 01:44:44 38° SW 02:00:44 10° SSE daylight
06 Apr - 03:56:52 10° W 04:05:13 14° WSW 04:12:30 10° SSW visible
06 Apr - 16:28:43 10° SE 16:33:14 12° ESE 16:38:16 10° ESE daylight
06 Apr - 18:38:49 10° SSW 18:52:58 36° SE 19:12:15 10° E daylight
06 Apr - 20:57:47 10° WSW 21:16:18 54° S 21:38:21 10° ESE daylight
06 Apr - 23:20:19 10° W 23:41:26 52° SSW 00:01:17 10° SE daylight
07 Apr - 01:46:07 10° W 02:04:47 33° SW 02:19:58 10° SSE daylight
07 Apr - 16:44:25 10° SSE 16:52:42 17° SE 17:03:06 10° E daylight
07 Apr - 18:58:22 10° SSW 19:13:05 42° SSE 19:33:27 10° E daylight
07 Apr - 21:18:08 10° WSW 21:36:58 56° S 21:59:03 10° ESE daylight
